Starlink 11571

operational
NORAD ID: 62986 Int'l Des: 2025-031 Owner: SPXS Country: US Constellation: starlink
LEOCIRCULAR

关于 Starlink 11571

正在加载描述...

实时位置

正在加载3D地球...

即将过境

高度历史

Altitude vs Time

uPlot chart will show altitude changes over time

两行轨道根数

1 62986U 25031F 25349.80166393 .00107495 00000-0 82930-3 0 9992
2 62986 43.0000 146.6964 0001913 276.9807 83.0843 15.70871920 49558
Epoch: Dec 15, 2025 • Age: 17 hours

当前状态

高度 358.8 km
速度 7.70 km/s
星下点 -17.34°S, 141.05°W
发射日期 Feb 11, 2025
运行时间 0.8 years
类型 internet

技术详情

分类 Payload
质量 960.00 kg
干质量 910.00 kg
总质量 960.00 kg
长度 0.30 m
直径 4.10 m
跨度 29.00 m
形状 Box + pan
制造商 SPXS
平台类型 Starlink V2MD
阶段状态 In Orbit
所有者/国家 SPXS/US

大型星座

Loading constellations...